Overview Statistics Trail Chart Weather Telemetry Raw packets
 

This is the latest recevied weather packets stored in our database for station/object MEGLR. If no packets are shown the sender has not sent any weather packets the latest 10 day(s).

<< 16 17 18 19 20 21 22 >>
Time Temp. Humidity Pressure Rain* Wind** Luminosity Snow
1788434403 12.78° C 99% 0 hPa - - - -
1788433802 12.78° C 99% 0 hPa - - - -
1788433204 12.22° C 99% 0 hPa - - - -
1788432603 12.22° C 99% 0 hPa - - - -
1788432003 12.78° C 99% 0 hPa - - - -
1788431403 12.22° C 99% 0 hPa - - - -
1788430803 12.22° C 99% 0 hPa - - - -
1788430202 12.22° C 99% 0 hPa - - - -
1788429609 12.78° C 99% 0 hPa - - - -
1788429003 12.78° C 99% 0 hPa - - - -
1788428403 12.78° C 99% 0 hPa - - - -
1788427803 12.78° C 99% 0 hPa - - - -
1788427204 12.78° C 98% 0 hPa - - - -
1788426602 12.78° C 97% 0 hPa - - - -
1788426003 12.78° C 96% 0 hPa - - - -
1788425403 12.78° C 97% 0 hPa - - - -
1788424803 12.78° C 95% 0 hPa - - - -
1788424203 12.78° C 95% 0 hPa - - - -
1788423603 12.78° C 96% 0 hPa - - - -
1788423003 13.33° C 95% 0 hPa - - - -
1788422404 13.33° C 91% 0 hPa - - - -
1788421803 13.89° C 86% 0 hPa - - - -
1788421203 13.89° C 86% 0 hPa - - - -
1788420003 13.89° C 86% 0 hPa - - - -
1788419403 13.33° C 88% 0 hPa - - - -

* Rain since midnight (hover to see other rain measurements)
** Current wind speed in m/s (hover to see current wind gust speed)